Theta_e
310 310 309 308 308 307 306 306 305 305 305 304 305 305 305 305 302 292 290 290 285 279 282 283 285 282 282 280 275 277 277 276 272 269 264 270 273 276 273 271 273 276 268 278 270 267 272 285 284 281 284 284 284 285
310 309 309 308 308 307 306 305 305 305 305 304 304 305 305 305 301 295 288 291 289 282 279 285 284 284 284 284 282 281 280 280 281 275 276 272 273 267 273 263 276 270 278 273 277 278 284 285 284 286 286 286 286 285
309 309 308 308 307 306 306 305 305 305 304 304 304 305 305 304 301 294 287 288 284 279 278 278 277 284 288 286 287 281 279 284 286 283 275 270 267 276 262 266 272 277 280 276 275 278 282 283 283 285 286 286 286 286
308 308 307 307 306 306 305 305 304 305 304 304 304 304 304 304 300 295 288 287 283 277 273 273 283 281 285 286 286 286 285 285 284 282 274 269 264 278 272 276 278 275 276 273 276 278 279 283 284 285 285 285 284 285
308 307 307 306 305 305 305 304 304 304 304 303 303 303 304 303 299 291 287 287 285 281 271 275 278 281 283 284 284 285 285 283 277 273 273 273 276 279 275 275 272 276 275 275 273 279 280 283 282 283 283 283 283 284
307 307 306 305 305 305 304 304 303 304 303 303 303 303 303 300 296 287 280 286 288 284 274 268 280 281 284 283 283 283 283 280 276 272 268 273 279 274 269 268 275 278 278 280 278 276 278 279 277 277 281 281 280 279
307 306 306 305 305 304 304 303 303 303 303 302 303 303 302 298 287 281 279 284 290 284 274 273 275 281 283 277 273 279 284 282 275 275 277 277 275 278 268 270 277 278 279 279 278 277 277 274 280 273 272 274 272 271
306 306 305 304 304 303 303 303 303 303 302 302 302 302 299 298 292 286 291 292 286 277 272 269 273 277 282 277 272 281 274 272 274 268 272 276 274 277 273 276 278 278 276 275 277 277 279 273 270 272 267 266 270 272
306 305 304 304 303 303 302 302 303 302 302 301 301 299 291 284 282 286 293 289 282 279 269 264 268 268 281 279 279 280 275 267 273 277 268 274 263 271 274 274 274 274 274 276 272 269 267 267 270 266 264 264 265 268
305 304 304 303 302 302 301 302 302 302 301 300 293 285 282 285 294 292 283 275 275 271 267 266 264 272 278 276 276 276 274 273 266 270 273 271 269 275 276 274 273 272 270 266 270 272 266 265 264 263 263 264 264 265
304 303 303 302 301 301 301 302 301 301 298 289 285 284 287 295 285 277 278 271 270 272 272 267 269 275 277 269 270 270 264 262 266 265 273 270 264 271 268 266 265 263 262 262 262 262 261 263 263 262 263 260 260 262
303 303 302 302 301 300 301 301 301 295 289 289 288 289 286 282 279 277 272 270 274 272 269 272 270 273 275 270 269 271 262 269 261 261 268 266 269 269 264 265 263 260 259 259 267 269 260 259 258 258 260 260 259 260
303 303 302 301 300 301 301 301 300 297 295 290 286 283 282 280 274 270 270 268 268 267 274 274 273 276 276 271 271 271 263 264 261 267 264 266 267 264 263 259 260 255 255 255 257 255 253 256 256 253 260 258 259 260
303 302 301 300 300 300 300 301 298 296 289 284 280 275 278 274 273 269 267 269 271 276 277 276 272 270 267 265 273 263 260 264 265 261 263 266 267 266 260 255 260 262 257 256 256 254 255 258 267 270 261 258 256 257
302 301 300 299 300 300 300 298 297 292 285 281 280 275 274 268 262 261 264 271 268 281 279 276 273 274 267 269 265 262 264 261 263 264 266 267 263 261 258 255 257 257 256 256 253 254 261 269 269 263 258 258 254 255
301 300 297 299 300 299 299 297 290 285 285 282 279 273 266 269 268 263 264 274 280 280 274 274 270 268 268 265 265 262 264 263 266 265 266 260 260 258 259 258 257 256 256 255 253 260 267 269 266 257 255 256 257 255
299 287 298 299 299 299 297 286 285 285 283 280 275 269 272 272 274 270 270 275 282 279 273 271 270 267 265 262 261 263 266 268 267 263 260 261 266 264 259 256 256 256 255 254 265 268 269 266 255 256 258 255 253 253
288 295 298 299 298 293 285 285 283 282 278 276 274 272 267 271 272 266 272 281 280 277 273 273 268 265 264 265 264 268 268 263 259 261 261 259 257 255 260 262 257 257 256 255 267 270 269 258 257 256 254 254 256 256
292 295 297 297 291 285 282 283 284 277 273 271 274 273 273 274 275 278 281 281 272 275 274 270 267 263 265 266 269 265 263 268 270 265 259 254 256 259 259 256 259 256 256 256 267 269 266 265 264 265 267 267 266 264
297 297 296 294 290 281 277 277 283 277 274 274 276 274 275 275 278 280 280 273 275 275 273 268 268 266 267 264 263 263 264 267 269 268 265 259 254 255 260 260 261 257 255 253 253 259 267 268 268 269 268 268 266 258
291 288 289 283 279 275 272 272 272 274 275 273 272 274 271 273 277 277 277 273 276 274 264 253 252 253 255 255 257 255 260 262 263 266 271 269 256 257 255 254 256 255 256 255 257 256 256 260 266 267 266 260 258 257
275 279 273 280 275 273 271 271 271 273 275 275 274 272 272 272 272 275 275 272 264 252 250 250 251 252 255 256 256 255 256 256 257 259 262 261 259 258 256 257 258 259 258 258 258 260 259 255 254 254 255 254 255 255
271 271 266 266 270 270 267 271 270 271 272 272 276 273 272 271 271 272 260 256 253 253 251 250 251 252 253 255 255 256 257 259 259 258 257 256 255 255 255 256 257 259 257 257 254 255 255 255 254 253 253 253 253 254
264 255 257 257 260 260 265 264 267 268 269 268 268 265 264 265 267 263 257 252 252 253 252 252 253 255 256 257 255 255 255 255 256 255 255 256 257 256 253 254 254 255 256 254 254 252 253 253 255 254 253 252 253 254
256 249 252 252 254 258 259 259 259 262 260 262 263 262 260 262 260 255 254 250 250 251 251 252 252 253 253 254 254 254 254 254 254 253 254 251 252 254 255 254 254 256 255 256 253 252 252 252 253 254 254 254 255 256
246 247 248 246 249 252 251 255 253 252 257 256 254 254 257 262 259 252 249 249 249 250 250 250 250 251 252 253 252 253 254 252 251 252 254 252 253 254 254 254 256 258 254 253 253 253 253 254 254 255 255 256 259 258
244 245 247 250 248 250 251 251 252 252 249 249 248 251 257 260 252 248 250 251 250 251 252 252 252 252 252 253 254 253 253 251 253 254 255 254 254 253 255 255 255 256 253 252 253 254 255 257 258 258 258 258 260 261
245 245 245 246 247 248 247 247 246 245 246 247 249 247 252 248 248 248 250 252 252 252 252 253 255 254 254 255 256 255 252 253 254 254 254 254 253 253 254 254 256 264 260 260 260 259 258 259 260 260 260 260 261 261
246 246 246 245 247 247 245 245 245 247 248 247 248 247 246 248 249 249 251 251 252 252 251 251 252 253 255 255 255 254 254 254 254 255 256 255 255 256 258 257 259 259 259 260 263 264 261 260 261 260 260 261 261 261
243 243 245 245 245 245 246 246 247 248 248 248 248 249 249 249 250 252 251 250 249 249 250 251 251 250 250 250 251 253 254 254 253 251 249 250 252 256 257 258 259 261 262 262 262 263 266 265 265 259 258 257 258 260
238 239 242 243 243 245 245 245 245 246 245 246 245 246 246 246 249 250 250 250 249 250 250 250 250 251 250 250 250 250 251 254 254 253 254 255 257 259 259 259 260 261 262 262 263 263 261 261 261 258 255 257 257 259
240 239 243 241 242 244 244 243 242 242 242 242 241 241 243 243 243 245 247 246 246 247 248 248 248 250 251 252 253 253 253 253 253 253 254 256 258 259 260 260 260 260 261 261 262 261 261 261 261 260 260 260 260 260
235 234 233 236 240 239 238 239 238 239 240 239 240 239 239 241 242 245 246 245 246 245 245 247 248 248 249 251 253 253 253 253 254 257 258 260 261 261 259 258 259 259 259 260 260 260 260 260 259 259 259 259 258 258
Wind_Speed
42 40 40 39 38 37 36 34 31 28 27 25 23 21 19 17 17 5 3 1 5 4 1 2 2 3 2 1 4 4 4 5 5 6 4 1 0 1 2 4 1 2 2 3 3 5 2 5 4 6 2 2 3 4
43 42 42 40 39 38 36 34 32 29 29 26 24 22 20 19 17 8 4 0 3 6 3 1 2 2 2 0 4 1 4 2 2 4 0 3 1 2 0 2 3 2 3 3 4 4 2 3 3 3 2 2 3 3
43 42 42 42 41 39 37 35 33 30 30 27 24 23 21 21 17 6 4 5 4 4 4 4 1 5 3 4 3 4 2 2 3 4 4 3 2 2 2 5 2 3 1 2 5 4 1 5 5 3 4 4 5 5
44 43 43 43 42 39 37 36 34 31 30 28 25 23 21 21 16 9 4 4 5 4 6 4 3 2 5 5 2 1 4 3 4 3 3 3 3 2 3 3 3 4 2 3 5 5 2 3 3 4 6 5 6 6
43 41 42 42 41 39 38 36 34 32 31 29 26 24 22 21 15 8 3 2 2 6 5 1 2 4 5 4 3 1 3 3 2 3 3 3 1 1 2 1 4 5 7 5 6 5 2 3 1 4 3 3 3 4
41 42 43 43 42 40 38 36 34 33 32 29 26 24 23 22 18 5 4 2 3 4 7 3 1 3 5 6 7 5 3 3 3 4 3 2 2 3 1 3 7 6 4 5 3 3 4 6 6 2 1 2 2 3
44 45 46 44 44 43 40 37 35 34 32 30 27 26 25 21 4 4 7 4 10 4 6 4 0 1 2 3 3 2 3 2 4 2 1 1 1 2 2 5 7 5 5 4 2 3 4 1 1 3 3 5 3 4
41 43 43 41 42 42 41 38 36 35 33 31 28 26 23 17 11 5 3 8 5 7 5 5 1 1 1 2 1 0 2 3 3 2 2 2 1 1 6 11 4 2 2 3 6 5 4 2 3 6 4 5 6 6
43 42 43 45 45 45 43 39 37 37 36 34 31 27 7 4 3 2 12 10 3 6 5 4 7 5 2 2 2 2 2 1 3 2 2 1 2 8 11 4 3 4 5 4 2 3 4 3 4 3 3 4 2 6
43 44 44 45 46 45 44 42 40 40 39 38 18 5 3 4 16 13 7 5 6 4 4 4 1 4 4 2 1 2 2 1 1 4 2 3 6 8 5 7 5 5 5 4 1 6 2 3 4 3 5 5 5 6
45 45 47 47 46 46 45 44 44 43 39 7 6 3 4 21 4 4 3 4 2 2 3 4 4 7 1 5 4 1 4 2 1 5 2 3 6 5 4 3 2 1 2 2 2 0 1 4 5 5 6 5 6 7
44 47 48 49 50 48 47 47 49 21 8 11 13 9 4 3 3 5 5 1 6 9 3 6 5 5 3 3 5 2 4 2 4 1 1 5 7 6 4 3 3 4 2 2 3 6 5 5 5 6 7 6 5 6
45 46 47 50 52 51 51 51 42 36 34 13 6 6 5 4 7 12 12 6 5 6 7 6 6 4 3 3 4 3 4 5 1 1 6 8 4 4 5 3 1 2 4 1 3 2 3 6 5 3 7 4 6 7
46 47 49 51 52 54 52 50 44 35 13 6 7 11 9 9 9 7 6 8 5 7 13 9 5 5 3 5 4 6 3 3 2 2 9 5 7 6 4 3 4 4 4 2 4 2 4 5 5 3 5 5 5 6
49 50 53 53 53 54 53 46 44 11 5 6 6 10 8 3 3 1 4 6 2 14 12 8 5 4 2 6 3 5 3 4 7 8 6 5 4 4 3 3 5 3 2 2 2 1 3 3 3 4 5 5 3 3
48 48 36 54 52 53 47 38 10 3 3 5 4 5 2 6 2 3 1 9 9 13 5 4 6 5 3 7 5 9 10 9 7 6 5 2 3 4 5 5 4 4 4 3 2 2 3 3 2 1 3 6 6 4
41 5 46 51 51 49 41 8 4 4 6 6 3 2 4 6 8 6 4 4 12 13 5 5 7 6 5 4 3 6 8 6 6 4 4 5 6 5 5 4 4 4 4 3 3 3 2 3 3 2 4 5 4 4
10 32 52 50 40 29 4 3 3 5 5 4 6 5 2 3 8 3 5 12 9 6 6 5 8 5 7 9 5 6 6 3 3 3 3 4 4 3 5 7 5 5 5 4 3 2 2 3 3 2 3 3 3 3
29 32 50 47 24 8 6 2 2 4 3 3 4 5 4 5 3 7 8 11 2 3 8 2 6 4 5 5 5 3 3 4 4 4 3 2 3 6 6 4 6 5 5 4 2 2 1 0 2 4 3 2 2 2
40 45 42 35 13 5 6 3 2 5 4 4 4 4 5 4 7 8 11 3 2 3 3 3 5 3 2 2 3 1 2 1 4 3 1 2 3 5 6 5 4 5 4 2 1 2 2 2 1 3 3 3 3 3
29 21 22 9 6 8 5 3 5 2 3 5 3 4 4 2 7 6 6 2 2 1 1 1 2 2 3 2 2 2 3 4 2 0 2 4 3 4 3 2 4 3 3 3 3 2 3 4 1 3 3 2 1 1
5 14 6 8 7 5 5 5 3 2 4 5 5 3 5 4 4 5 4 3 3 3 1 2 3 3 4 4 4 4 4 3 2 1 5 5 4 3 2 4 5 4 4 3 3 4 4 3 2 1 3 3 3 3
12 10 9 11 7 7 3 4 4 3 5 3 3 5 3 3 3 4 6 3 3 3 1 1 4 3 3 4 2 4 8 6 5 5 4 3 2 2 3 2 2 4 3 3 3 3 3 2 1 1 2 2 2 3
17 13 10 8 10 4 3 6 5 4 4 4 4 4 3 2 2 5 5 3 3 2 5 7 5 3 1 3 4 4 6 3 2 1 3 3 3 2 2 1 1 1 2 1 3 3 3 4 5 4 2 1 0 2
14 13 9 9 6 6 7 5 6 5 5 5 4 3 3 3 4 4 3 3 3 4 5 5 5 5 3 2 2 3 3 5 3 3 3 1 1 1 2 1 1 3 3 4 2 3 3 3 4 4 5 5 5 4
15 8 8 9 6 7 5 4 6 5 4 4 5 4 3 1 5 3 2 3 3 3 5 5 5 4 2 2 3 3 4 2 2 0 2 1 1 2 1 2 3 4 0 2 4 3 4 3 5 7 5 6 7 6
10 7 4 3 3 3 4 4 3 5 7 6 5 6 3 4 4 2 1 2 2 2 5 5 4 3 3 4 4 3 3 2 3 4 4 2 2 2 2 2 2 3 0 2 3 4 5 6 6 7 6 4 6 7
5 6 9 10 5 5 4 5 6 6 4 5 3 7 4 4 2 2 2 3 5 5 5 5 3 3 3 3 4 4 3 4 5 2 1 1 2 2 1 2 3 6 2 3 3 4 4 5 6 7 7 8 6 6
6 7 4 8 6 9 8 7 4 2 3 3 2 3 2 2 1 2 2 4 5 3 3 5 5 5 4 3 2 2 4 5 5 3 2 2 2 2 5 3 4 4 3 2 4 5 6 5 5 5 6 5 5 6
5 5 3 4 6 6 4 3 3 1 1 2 1 2 1 1 0 1 3 3 3 3 3 3 3 4 4 5 4 5 3 4 5 3 2 3 4 6 5 5 5 4 4 3 3 3 4 3 1 1 3 2 2 5
3 3 4 4 3 2 3 2 2 2 3 3 2 2 2 1 1 1 1 2 2 2 2 4 3 4 5 5 5 5 4 2 8 8 6 6 6 6 5 5 4 4 3 2 3 2 2 3 3 2 2 4 5 5
5 5 2 4 1 4 4 3 3 2 4 4 4 3 4 4 3 3 2 2 3 4 5 4 4 3 4 4 3 2 5 6 7 7 9 7 7 6 5 5 5 3 3 1 1 1 1 2 3 4 5 6 6 5
2 3 2 3 5 5 4 4 5 5 4 3 3 1 1 2 2 4 3 1 2 2 3 4 5 4 5 5 4 5 7 6 9 12 12 12 12 8 5 4 3 3 2 2 3 3 3 1 0 1 3 4 6 7
Wind_Direction
184 183 184 185 186 185 182 180 180 180 178 181 184 183 181 178 163 124 135 161 119 119 277 302 52 146 95 130 143 250 44 340 33 64 100 211 150 340 299 255 264 325 61 9 38 57 358 350 343 67 278 345 23 20
185 186 183 182 184 182 180 179 178 178 177 178 181 180 175 171 162 127 118 321 103 80 163 44 60 51 11 2 137 26 160 155 151 98 272 63 352 29 37 302 317 358 169 219 165 217 335 330 25 1 13 27 19 14
184 185 182 181 183 182 177 177 176 177 175 175 178 177 172 169 166 124 123 145 67 98 13 58 280 326 34 1 289 121 301 220 111 166 163 190 226 132 172 251 274 254 99 191 36 298 282 342 330 18 10 27 358 350
186 186 184 180 179 179 176 175 175 174 173 171 173 172 169 166 155 122 133 154 92 107 114 268 330 358 326 352 284 292 130 62 83 66 84 125 152 198 223 236 244 213 41 190 268 283 359 52 88 32 355 8 4 357
184 185 183 177 175 176 173 173 173 172 170 167 168 165 164 157 135 93 92 157 143 125 157 191 319 358 326 339 21 14 94 96 76 62 99 220 234 210 294 52 253 187 192 157 219 225 150 255 330 349 12 357 359 354
181 182 179 176 172 173 172 171 171 169 165 163 162 157 156 145 132 95 38 279 163 120 101 100 251 23 358 40 58 45 30 73 94 134 216 253 239 114 106 239 258 211 194 178 204 184 211 258 284 272 239 284 310 301
183 181 179 177 172 169 165 168 168 165 160 158 155 153 149 148 87 114 187 209 140 103 90 94 44 14 16 25 37 37 36 66 97 113 207 234 287 120 150 227 260 224 217 222 223 125 331 251 236 310 259 286 296 276
183 181 175 173 171 163 160 166 163 159 154 150 147 142 139 116 95 40 35 100 92 92 77 116 115 189 162 69 36 103 36 33 23 183 341 231 350 151 255 239 271 282 327 281 247 210 233 299 333 331 342 354 328 311
182 177 174 169 166 160 161 160 158 153 148 144 132 122 100 60 106 165 117 85 59 118 135 109 144 192 184 114 107 46 77 47 283 219 257 113 245 222 227 220 229 212 191 213 302 300 326 276 296 299 3 340 326 284
177 173 172 168 164 160 160 159 155 148 142 129 124 97 161 194 139 131 17 32 9 343 40 117 71 135 149 73 117 124 355 181 196 237 318 235 254 264 247 218 201 217 211 144 261 303 26 308 253 268 229 241 237 262
176 174 168 165 163 161 158 156 150 143 134 126 134 114 110 142 90 55 115 119 223 269 164 168 154 136 215 121 155 186 182 224 229 265 201 260 273 248 239 204 170 101 74 245 275 242 235 206 251 272 282 234 236 258
174 174 170 164 159 159 159 154 152 140 138 122 112 92 101 92 65 136 190 168 200 210 177 137 172 132 150 116 98 176 140 101 237 271 109 257 252 246 258 214 179 161 153 264 234 302 292 267 255 257 274 273 256 256
173 171 167 163 158 160 158 159 150 129 115 120 94 125 140 160 176 190 186 210 174 176 170 160 118 116 122 72 93 122 97 212 77 148 238 233 260 275 235 230 244 166 149 199 299 288 305 297 304 229 285 258 282 289
170 167 163 161 160 159 159 158 145 139 127 115 147 148 187 178 225 188 157 152 193 136 141 128 110 123 165 70 136 113 216 103 127 261 238 244 228 232 213 202 141 196 180 210 267 275 295 284 297 334 347 307 302 294
166 163 160 161 161 158 162 150 152 139 92 115 134 179 190 164 37 220 121 104 176 142 140 115 77 96 113 113 90 125 91 230 208 225 231 232 226 193 211 204 210 217 211 249 214 282 294 308 341 340 342 340 337 331
163 157 165 159 157 159 151 147 113 81 93 134 136 114 87 87 50 10 31 123 140 145 106 73 117 107 157 135 140 207 147 215 232 210 218 173 208 211 203 196 193 167 173 203 225 230 288 348 32 245 339 16 11 35
151 122 159 156 151 154 144 107 107 119 132 141 141 93 136 117 155 162 139 163 157 153 142 136 126 175 106 105 211 196 199 213 204 224 205 195 182 196 178 153 159 159 174 199 225 217 154 103 104 57 47 3 12 22
124 146 148 145 143 129 36 62 96 120 135 119 128 163 129 102 116 134 132 149 152 170 142 168 125 146 164 172 228 217 223 243 212 176 197 186 180 165 158 159 164 162 167 191 240 235 153 116 112 158 163 186 118 63
139 140 141 139 133 103 107 102 93 94 80 100 94 104 106 119 55 96 135 143 17 126 117 80 107 162 211 213 204 199 203 188 177 181 192 208 192 165 157 137 139 144 153 174 224 222 204 238 153 161 163 168 121 115
130 138 132 135 106 77 88 58 61 107 145 169 109 111 89 107 128 126 135 85 113 148 111 128 186 205 173 344 7 348 320 153 134 102 260 227 206 158 174 160 165 150 130 106 325 337 238 207 182 150 155 171 153 185
98 107 104 84 70 58 74 30 66 64 124 81 120 96 87 56 111 121 143 180 86 285 131 6 304 300 306 274 304 282 357 14 49 246 206 158 180 160 148 152 126 116 148 171 181 241 234 247 192 163 158 139 92 108
53 49 66 42 75 64 68 16 62 85 71 123 106 89 108 104 114 130 116 70 60 59 26 332 332 328 345 12 346 6 316 319 306 42 50 58 122 143 184 174 142 183 198 195 178 206 227 237 228 168 129 139 117 100
37 43 50 20 71 54 49 322 82 20 105 129 104 99 103 106 93 78 78 51 84 37 329 302 290 263 275 313 350 17 20 17 45 31 20 17 37 31 49 130 153 159 186 242 179 170 205 168 142 90 64 68 93 103
36 48 34 40 17 48 326 30 9 49 57 46 65 82 40 58 13 52 92 51 33 13 18 356 343 334 324 22 31 5 2 351 45 64 18 27 42 11 9 1 174 197 177 158 131 138 155 159 147 130 125 85 334 140
66 10 17 15 19 20 39 31 16 38 68 27 85 76 25 324 78 60 62 28 11 17 7 354 3 13 22 345 339 348 350 26 16 345 337 42 197 339 1 355 240 198 160 113 166 173 181 150 155 161 162 164 177 191
65 11 36 359 11 32 0 54 31 26 11 67 41 335 295 85 73 76 37 353 351 1 1 354 341 333 344 3 319 333 315 330 360 333 288 359 43 120 128 35 14 342 311 150 135 177 188 183 175 172 185 195 189 170
48 351 6 65 337 319 66 33 27 45 49 30 357 342 306 86 86 70 12 55 348 326 312 293 281 278 283 300 288 278 282 264 232 253 278 289 247 212 176 178 211 238 199 202 198 196 195 193 202 200 192 170 197 192
55 28 19 343 39 21 72 51 39 37 6 342 274 24 40 25 76 343 346 357 324 306 296 294 292 304 285 283 301 321 316 312 288 281 319 307 243 230 281 280 263 285 268 218 234 213 210 212 207 205 201 188 188 185
33 344 344 23 26 33 35 39 53 43 348 322 16 45 63 73 352 327 315 319 311 317 355 358 354 339 347 333 356 349 352 356 14 25 344 318 357 3 355 333 319 301 278 282 277 227 216 224 223 207 211 193 169 162
350 351 50 37 45 32 348 350 1 358 134 78 84 120 102 105 129 321 322 329 354 349 330 330 339 5 2 2 340 346 25 34 33 38 26 341 303 306 302 300 302 316 326 316 287 256 249 190 191 53 111 113 164 158
320 10 60 51 85 262 260 313 327 354 9 22 22 88 95 235 224 167 7 326 309 325 2 12 6 19 13 8 5 353 340 0 355 336 319 293 278 284 292 291 291 296 301 326 292 278 126 127 182 196 171 172 178 163
359 35 40 69 309 307 8 26 355 27 347 21 345 355 354 24 347 302 305 44 23 14 348 343 339 335 348 335 321 288 289 298 311 315 307 309 311 309 306 303 293 285 291 89 132 214 165 195 204 199 187 178 164 160
17 34 54 58 16 6 326 58 13 358 12 5 312 275 256 156 272 277 312 127 179 237 290 292 289 277 275 294 312 326 327 311 309 322 319 309 319 334 329 306 309 340 338 81 99 112 104 123 340 151 126 134 121 119